Regional Weather Roundup
Issued by NWS Grand Forks, ND

Home | Current Version | Previous Version | Text Only | Print | Product List | Glossary On
Versions: 1 2 3 4 5 6 7 8 9 10 11 12 13 14 15 16 17 18 19 20 21 22 23 24 25 26 27 28 29 30 31 32 33 34 35 36 37 38 39 40 41 42 43 44 45 46 47 48 49 50
000
ASUS43 KFGF 011531
RWRFGF
PRAIRIE TO PINES  WEATHER ROUNDUP
NATIONAL WEATHER SERVICE EASTERN NORTH DAKOTA/GRAND FORKS ND
900 AM CST SUN FEB 01 2015

 **SATELLITE DATA USED TO AUGMENT SKY COVER AT AUTOMATED STATIONS**
 *****  WEATHER ACROSS EASTERN NORTH DAKOTA  *****

CITY           SKY/WX    TMP DP  RH WIND       PRES   REMARKS
GRAND FORKS    MOCLDY   -11 -19  68 N13       30.58S WCI -32
GRAND FRKS AFB PTCLDY   -11 -21  61 N13       30.58S WCI -32
GRAND FRKS NWS   N/A    -11 N/A N/A NE10        N/A  WCI -30
DEVILS LAKE    PTCLDY   -11 -22  58 N8        30.51S WCI -28
FARGO          CLOUDY    -7 -15  68 N18       30.52R WCI -30
WAHPETON ARPT  FAIR      -2 -13  60 N18       30.46R WCI -24
$$

 ***** WEATHER ACROSS CENTRAL AND WESTERN NORTH DAKOTA  *****

CITY           SKY/WX    TMP DP  RH WIND       PRES   REMARKS
BISMARCK       MOCLDY    -7 -17  62 NW10      30.54R WCI -25
MINOT          PTCLDY   -10 -17  71 W5        30.50F WCI -22
JAMESTOWN      MOCLDY    -8 -17  64 N14       30.48R WCI -29
MINOT AFB      PTCLDY   -13 -19  77 W3        30.49F
GARRISON         N/A    -13 -19  75 NW6       30.48F WCI -27
WILLISTON      MOCLDY   -15 -19  82 SW5       30.50S WCI -27
DICKINSON      MOCLDY    -9 -13  83 NW3       30.39F
HETTINGER      MOCLDY    -5 -10  79 NW5       30.40S WCI -16
$$

 *****  OTHER AIRPORT OBSERVATIONS IN OUR AREA  *****

CITY           SKY/WX    TMP DP  RH WIND       PRES   REMARKS
WALHALLA         N/A    -11 -20  64 NW6       30.59S WCI -25
GRAFTON AIRPOR NOT AVBL
VALLEY CITY AR FAIR      -9 -17  70 N12       30.49R WCI -29
CANDO          FAIR     N/A N/A N/A NW5       30.52F
CAVALIER APRT  FAIR     -11 -18  70 NW6       30.60S WCI -25
GWINNER        MOSUNNY   -2 -13  60 N20       30.46R WCI -25
SHEYENNE NWR     N/A     -7 -17  61 N12       29.95S WCI -26
ROLLA          FAIR     -13 -20  70 SW6       30.46F WCI -27
 ***** THE ABOVE OBSERVATIONS ARE NON NWS ARE NOT QUALITY
       CONTROLLED AND MAY MIS-REPORT RAIN FOR SNOW...
$$

  *****  WEATHER ACROSS NORTHERN MINNESOTA  *****

CITY           SKY/WX    TMP DP  RH WIND       PRES   REMARKS
FLAG ISLAND    PTCLDY   -22 -27  76 NW9       30.51S WCI -42
WARROAD        MOCLDY   -18 -26  69 NW3       30.51S
ROSEAU         MOCLDY   -17 -24  70 CALM      30.53S
HALLOCK        PTCLDY   -15 -20  76 NW5       30.58S WCI -27
THF RVR FALLS  PTCLDY   -13 -18  77 N10       30.51R WCI -32
BAUDETTE       PTCLDY   -17 -22  78 N8        30.48F WCI -35
WASKISH        MOCLDY   -13 -18  77 CALM      30.47R
CROOKSTON      PTCLDY   -11 -18  70 N9        30.57R WCI -29
STEPHEN NDAWN    N/A    -15 -22  70 N6          N/A  WCI -29
GREENBUSH NDAW   N/A    -17 -24  70 N6          N/A  WCI -31
$$
  *****  WEATHER ACROSS CENTRAL AND WEST MINNESOTA  *****

CITY           SKY/WX    TMP DP  RH WIND       PRES   REMARKS
FOSSTON        FAIR     -11 -17  77 N13       30.47R WCI -32
BEMIDJI        MOCLDY   -12 -18  74 N3        30.43R
PARK RAPIDS    MOSUNNY   -7 -16  65 N12       30.38S WCI -26
ELBOW LAKE     FAIR       1  -8  66 N15       30.37R WCI -18
WADENA         CLOUDY    -4 -13  65 N14       30.36R WCI -24
DETROIT LAKES  PTCLDY    -4 -15  59 N6        30.41S WCI -16
MOORHEAD       PTCLDY    -6 -11  77 N21       30.50R WCI -30
FERGUS FALLS   PTCLDY     0 -15  50 N12       30.44R WCI -18
MORRIS MN      MOSUNNY    3  -6  66 N17       30.35R WCI -17
STAPLES        CLOUDY     0  -9  65 N7G17     30.36R WCI -13
$$
  *****  WEATHER ELSEWHERE ACROSS MINNESOTA  *****

CITY           SKY/WX    TMP DP  RH WIND       PRES   REMARKS
DULUTH         PTSUNNY   -3 -11  68 N9        30.32R WCI -19
INTRNTL FALLS  MOCLDY   -14 -21  71 N5        30.47S WCI -26
ELY            MOSUNNY  -17 -20  83 NE3       30.40R
CLOQUET        PTSUNNY   -2  -9  71 N9        30.33R WCI -18
WHEATON        CLOUDY    -2  -9  71 N17G23    30.44R WCI -24
BRAINERD       MOSUNNY   -1  -9  68 NE9       30.36R WCI -16
HIBBING        PTSUNNY  -11 -19  68 N6        30.39R WCI -25
ALEXANDRIA     SUNNY      0  -7  72 N14       30.32R WCI -19
SAINT CLOUD    PTSUNNY    6  -2  69 N12G21    30.30R WCI  -9
MINNEAPOLIS    CLOUDY    13   3  64 N18       30.24R WCI  -4
$$

  *****  WEATHER ACROSS SOUTH DAKOTA  *****

CITY           SKY/WX    TMP DP  RH WIND       PRES   REMARKS
SIOUX FALLS    LGT SNOW   6   2  83 N22G31    30.18R VSB 3/4 WCI -15
BROOKINGS      NOT AVBL
WATERTOWN      CLOUDY    -2  -8  76 N15       30.28R WCI -22
HURON          LGT SNOW   0  -5  79 N23       30.37R WCI -23
SISSETON         N/A     -3 -10  72 N20       30.41R WCI -26
ABERDEEN       CLOUDY    -1 -10  65 N22       30.43R WCI -24
MITCHELL       LGT SNOW   2  -4  76 N22G31    30.34R VSB 1   WCI -20
PIERRE         LGT SNOW  -2  -7  79 NW18      30.43R VSB 1   WCI -24
MOBRIDGE       LGT SNOW  -3 -10  72 N13       30.44R WCI -22
RAPID CITY     PTCLDY    -1  -5  82 N15       30.33R WCI -21
$$

  *****  SOME WEATHER IN NEARBY STATES *****

CITY           SKY/WX    TMP DP  RH WIND       PRES   REMARKS
GLASGOW MT     CLEAR     -9 -13  83 SE8       30.41F FOG     WCI -25
GREAT FALLS MT PTCLDY    -7 -10  87 CALM      30.19F
CHEYENNE WY    CLOUDY    13   9  84 N9G21     30.08R WCI   1
SCOTTSBLUFF NE CLOUDY    16   8  71 NW25G35   30.24R WCI  -3
OMAHA NE       LGT SNOW  21  18  88 N25G31    29.96R VSB 3/4 WCI   4
DES MOINES IA  SNOW      31  28  89 NE18G25   29.81R VSB 1/2 WCI  19
DAVENPORT IA   LGT SNOW  28  25  88 NE22G29   29.82F VSB 1   WCI  14
CHICAGO IL     SNOW      29  27  92 NE17      29.92F VSB 1/2 WCI  17
EAU CLAIRE WI  CLOUDY    11   1  64 NE16G25   30.21F WCI  -6
LA CROSSE WI   LGT SNOW  16  10  77 N9        30.14S WCI   4
$$

  *****  SOME NATIONAL WEATHER *****

CITY           SKY/WX    TMP DP  RH WIND       PRES   REMARKS
LA GUARDIA NY  PTSUNNY   31  19  61 NW10      30.22S WCI  22
RALEIGH NC     CLOUDY    42  20  41 CALM      30.27F
ATLANTA GA     PTSUNNY   49  37  63 S9        30.17F
NEW ORLEANS LA PTSUNNY   63  60  90 SE7       30.02R
OKLAHOMA CITY  PTSUNNY   38  29  70 NW33G39   29.96R
ALBUQUERQUE NM PTCLDY    34  30  85 W3        30.10R
SALT LAKE CITY PTCLDY    28  24  85 SE6       30.21S WCI  22
LOS ANGELES CA CLEAR     51  47  86 E3        30.07R
BOISE ID       CLOUDY    35  23  61 SE10      30.17S
SEATTLE WA     CLOUDY    41  40  96 CALM      30.03F
$$

*** WEATHER ACROSS MANITOBA...SASKATCHEWAN AND ONTARIO ***
                ***ONTARIO***

CITY           SKY/WX    TMP DP  RH WIND       PRES   REMARKS
GERALDTON      MOSUNNY  -26 -33  68 W5        30.39S WCI -40
THUNDER BAY    MOSUNNY  -15 -22  70 SW5       30.49F WCI -27
SIOUX LOOKOUT  PTCLDY   -24 -29  76 NW3       30.44S
TORONTO        PTSUNNY    9   1  72 N12       30.27R WCI  -6
BIG TROUT LK   CLEAR    -24 -31  69 W9G17     30.32F WCI -45
PICKLE LAKE    CLEAR    -26 -33  68 W8        30.36F WCI -45
DRYDEN         CLEAR    -24 -29  76 NW5       30.44S WCI -38
KENORA         PTCLDY   -24 -29  76 N8        30.47S WCI -43
$$
                *** MANITOBA***

CITY           SKY/WX    TMP DP  RH WIND       PRES   REMARKS
BRANDON        MOCLDY   -18 -24  76 W7        30.53F WCI -35
DAUPHIN        CLEAR    -17 -24  70 W10       30.53S WCI -37
ISLAND LAKE    CLEAR    -26 -33  68 SW9       30.41F WCI -47
PILOT MOUND      N/A    -18 -26  69 W3          N/A
THE PAS        PTCLDY   -26 -31  75 SW5       30.43F WCI -40
THOMPSON       CRYSTALS -27 -33  75 W7        30.34F WCI -46
WINNIPEG       PTCLDY   -18 -26  69 W6        30.60S WCI -33
LYNN LAKE      CLOUDY   -24 -31  69 W7        30.25F WCI -42
CHURCHILL      CLEAR    -26 -33  68 W9        30.24F WCI -47
GILLAM         PTCLDY   -26 -33  68 W10       30.30F WCI -48
$$
                ***SASKATCHEWAN***

CITY           SKY/WX    TMP DP  RH WIND       PRES   REMARKS
ESTEVAN        PTCLDY   -11 -17  77 SW5       30.47F WCI -23
KINDERSLEY     PTCLDY    -9 -13  84 S10       30.26F WCI -28
LLOYDMINSTER   PTCLDY    -4  -9  77 SW10      30.21S WCI -21
PRINCE ALBERT  MOCLDY   -24 -29  76 VRB2      30.36F
REGINA         PTCLDY   -15 -18  84 SE7       30.43F WCI -31
YORKTON        CLEAR    -18 -26  69 S7        30.44F WCI -35
N. BATTLEFORD  CLEAR     -4  -8  84 SE5       30.31F WCI -15
LA RONGE       CLEAR    -33 -40  68 CALM      30.32F
SASKATOON      PTCLDY   -11 -17  77 S7        30.38F WCI -26
SWIFT CURRENT  CLEAR     -2  -6  84 SW12      30.25F WCI -20
$$
NOTE: THESE ARE AUTOMATED STATIONS WITH LIMITED QUALITY CONTROL
      "FAIR" INDICATES FEW OR NO CLOUDS BELOW 12,000 FEET WITH NO
      SIGNIFICANT WEATHER AND/OR OBSTRUCTIONS TO VISIBILITY.
      SKY/WX - SKY CONDITION AND SIGNIFICANT WEATHER.
      TMP - AIR TEMPERATURE.    DP   - DEWPOINT TEMPERATURE.
      RH  - RELATIVE HUMIDITY.  PRES - PRESSURE.
      HX  - HEAT INDEX.         WCI  - WIND CHILL INDEX.
$



USA.gov is the U.S. government's official web portal to all federal, state and local government web resources and services.